KJ4AJP Weather Reports


Display with metric or nautical units.
time (UTC)temp
F
wind
direction
speed
MPH
gust
MPH
rain 1hr
in
rain 24hr
in
rain mn
in
humidity
%
barometer
mb
20200918111833 64 0 0.0 0.0 0.00 0.00 0.00 90 1015.0
20200918110934 64 0 0.0 0.0 0.00 0.00 0.00 90 1014.9
20200918110039 64 0 0.0 0.0 0.00 0.00 0.00 90 1014.8
20200918105133 64 0 0.0 0.0 0.00 0.00 0.00 90 1014.5
20200918104238 64 0 0.0 0.0 0.00 0.00 0.00 90 1014.5
20200918103333 64 0 0.0 0.0 0.00 0.00 0.00 90 1014.5
20200918102434 64 0 0.0 0.0 0.00 0.00 0.00 90 1014.3
20200918101533 65 0 0.0 0.0 0.00 0.00 0.00 89 1014.1
20200918100633 65 0 0.0 0.0 0.00 0.00 0.00 89 1014.5
20200918095733 65 0 0.0 0.0 0.00 0.00 0.00 89 1014.2
20200918094835 65 0 0.0 0.0 0.00 0.00 0.00 89 1013.9
20200918093936 65 0 0.0 0.0 0.00 0.00 0.00 89 1014.0
20200918093033 65 0 0.0 0.0 0.00 0.00 0.00 89 1013.8
20200918092139 65 0 0.0 0.0 0.00 0.00 0.00 89 1013.8
20200918091234 59 0 0.0 0.0 0.00 0.00 0.00 89 1013.6
20200918090335 66 0 0.0 0.0 0.00 0.00 0.00 89 1013.6
20200918085433 60 0 0.0 0.0 0.00 0.00 0.00 89 1013.4
20200918084533 66 0 0.0 0.0 0.00 0.00 0.00 89 1013.3
20200918083634 66 0 0.0 0.0 0.00 0.00 0.00 88 1013.3
20200918082733 66 0 0.0 0.0 0.00 0.00 0.00 88 1013.2
20200918081844 66 0 0.0 0.0 0.00 0.00 0.00 88 1013.3
20200918080936 67 0 0.0 0.0 0.00 0.00 0.00 88 1013.4
20200918080034 67 0 0.0 0.0 0.00 0.00 0.00 88 1013.1
20200918075133 67 0 0.0 0.0 0.00 0.00 0.00 88 1013.2
20200918074232 67 0 0.0 0.0 0.00 0.00 0.00 88 1013.3
20200918073334 67 0 0.0 0.0 0.00 0.00 0.00 88 1013.5
20200918072433 67 0 0.0 0.0 0.00 0.00 0.00 87 1013.1
20200918071535 67 0 0.0 0.0 0.00 0.00 0.00 87 1013.1
20200918070634 68 0 0.0 0.0 0.00 0.00 0.00 87 1013.1
20200918065733 68 0 0.0 0.0 0.00 0.00 0.00 87 1013.1
20200918064833 68 0 0.0 0.0 0.00 0.00 0.00 87 1012.9
20200918063934 68 0 0.0 0.0 0.00 0.00 0.00 87 1013.1
20200918063033 68 0 0.0 0.0 0.00 0.00 0.00 87 1013.0
20200918062135 69 0 0.0 0.0 0.00 0.00 0.00 87 1012.8
20200918061237 69 0 0.0 0.0 0.00 0.00 0.00 87 1012.6
20200918060335 69 0 0.0 0.0 0.00 0.00 0.00 87 1012.8
20200918055434 69 0 0.0 0.0 0.00 0.00 0.00 87 1012.8
20200918054538 69 0 0.0 0.0 0.00 0.00 0.00 86 1012.7
20200918053635 69 0 0.0 0.0 0.00 0.00 0.00 86 1012.8
20200918052733 69 0 0.0 0.0 0.00 0.00 0.00 86 1012.9
20200918051832 69 0 0.0 0.0 0.00 0.00 0.00 86 1012.6
20200918050933 70 0 0.0 0.0 0.00 0.00 0.00 86 1012.7
20200918050033 70 0 0.0 0.0 0.00 0.00 0.00 86 1012.5
20200918045133 70 0 0.0 0.0 0.00 0.00 0.00 86 1012.5
20200918044234 70 0 0.0 0.0 0.00 0.00 0.00 86 1012.5
20200918043334 70 0 0.0 0.0 0.00 0.00 0.00 86 1012.7
20200918042432 70 0 0.0 0.0 0.00 0.00 0.00 86 1012.6
20200918041539 70 0 0.0 0.0 0.00 0.00 0.00 87 1012.6
20200918040632 69 0 0.0 0.0 0.00 0.00 0.00 87 1012.4
20200918035733 69 0 0.0 0.0 0.00 0.00 0.00 87 1012.4
20200918034836 69 0 0.0 0.0 0.00 0.00 0.00 88 1012.4
20200918033932 68 0 0.0 0.0 0.00 0.00 0.00 88 1012.3
20200918031233 74 0 0.0 0.0 0.00 0.00 0.00 87 1012.1
20200918030333 67 0 0.0 0.0 0.00 0.00 0.00 85 1012.0
20200918025433 67 0 0.0 0.0 0.00 0.00 0.00 85 1012.0
20200918024532 67 0 0.0 0.0 0.00 0.00 0.00 85 1012.0
20200918023633 67 0 0.0 0.0 0.00 0.00 0.00 84 1011.9
20200918022741 67 0 0.0 0.0 0.00 0.00 0.00 83 1011.6
20200918021833 67 0 0.0 0.0 0.00 0.00 0.00 82 1011.6
20200918020935 67 0 0.0 0.0 0.00 0.00 0.00 81 1011.8
20200918020034 68 0 0.0 0.0 0.00 0.00 0.00 80 1011.8
20200918015134 68 0 0.0 0.0 0.00 0.00 0.00 80 1011.8
20200918014232 68 0 0.0 0.0 0.00 0.00 0.00 79 1011.8
20200918013333 69 0 0.0 0.0 0.00 0.00 0.00 78 1011.8
20200918012434 69 0 0.0 0.0 0.00 0.00 0.00 77 1011.2
20200918011535 69 0 0.0 0.0 0.00 0.00 0.00 77 1011.1
20200918010634 70 0 0.0 0.0 0.00 0.00 0.00 75 1011.3
20200918005734 70 0 0.0 0.0 0.00 0.00 0.00 75 1011.3
20200918004837 71 0 0.0 0.0 0.00 0.00 0.00 73 1011.1
20200918003933 72 0 0.0 0.0 0.00 0.00 0.00 72 1011.0
20200918003033 72 0 0.0 0.0 0.00 0.00 0.00 70 1010.9
20200918002135 73 0 0.0 0.0 0.00 0.00 0.00 68 1011.0
20200918001235 74 0 0.0 0.0 0.00 0.00 0.00 66 1011.1
20200918000332 75 0 0.0 0.0 0.00 0.00 0.00 64 1010.9
20200917235432 75 0 0.0 0.0 0.00 0.00 0.00 63 1010.8
20200917234535 76 0 0.0 0.0 0.00 0.00 0.00 61 1010.7
20200917233633 77 0 0.0 0.0 0.00 0.00 0.00 59 1010.8
20200917232733 78 0 0.0 0.0 0.00 0.00 0.00 58 1010.6
20200917231832 79 0 0.0 0.0 0.00 0.00 0.00 56 1010.5
20200917230933 79 0 0.0 0.0 0.00 0.00 0.00 55 1010.6
20200917230042 80 0 0.0 0.0 0.00 0.00 0.00 53 1010.3
20200917225136 80 0 0.0 0.0 0.00 0.00 0.00 51 1010.2
20200917224232 80 0 0.0 0.0 0.00 0.00 0.00 48 1010.5
20200917223336 80 0 0.0 0.0 0.00 0.00 0.00 46 1010.2
20200917222432 81 0 0.0 0.0 0.00 0.00 0.00 44 1010.3
20200917221532 81 0 0.0 0.0 0.00 0.00 0.00 42 1010.0
20200917220639 83 0 0.0 0.0 0.00 0.00 0.00 39 1010.2
20200917215733 81 0 0.0 0.0 0.00 0.00 0.00 39 1010.2
20200917214832 83 0 0.0 0.0 0.00 0.00 0.00 39 1010.1
20200917213932 83 0 0.0 0.0 0.00 0.00 0.00 37 1010.1
20200917213047 84 0 0.0 0.0 0.00 0.00 0.00 34 1010.2
20200917212132 84 0 0.0 0.0 0.00 0.00 0.00 33 1010.0
20200917211236 84 0 0.0 0.0 0.00 0.00 0.00 32 1010.2
20200917210333 84 0 0.0 0.0 0.00 0.00 0.00 33 1009.9
20200917205435 84 0 0.0 0.0 0.00 0.00 0.00 34 1009.8
20200917204533 85 0 0.0 0.0 0.00 0.00 0.00 33 1010.2
20200917203632 85 0 0.0 0.0 0.00 0.00 0.00 33 1010.2
20200917202733 85 0 0.0 0.0 0.00 0.00 0.00 34 1010.1
20200917201832 85 0 0.0 0.0 0.00 0.00 0.00 33 1010.3
20200917200932 85 0 0.0 0.0 0.00 0.00 0.00 31 1010.2
20200917200036 85 0 0.0 0.0 0.00 0.00 0.00 31 1010.1
20200917195136 86 0 0.0 0.0 0.00 0.00 0.00 34 1010.0
20200917194233 86 0 0.0 0.0 0.00 0.00 0.00 33 1010.2
20200917193337 85 0 0.0 0.0 0.00 0.00 0.00 34 1010.0
20200917192435 85 0 0.0 0.0 0.00 0.00 0.00 34 1010.2
20200917191532 86 0 0.0 0.0 0.00 0.00 0.00 31 1010.3
20200917190632 103 0 0.0 0.0 0.00 0.00 0.00 32 1010.4
20200917185732 103 0 0.0 0.0 0.00 0.00 0.00 32 1010.5
20200917184842 85 0 0.0 0.0 0.00 0.00 0.00 34 1010.5
20200917183934 85 0 0.0 0.0 0.00 0.00 0.00 35 1010.5
20200917183037 85 0 0.0 0.0 0.00 0.00 0.00 35 1010.7
20200917182132 85 0 0.0 0.0 0.00 0.00 0.00 35 1010.7
20200917181233 85 0 0.0 0.0 0.00 0.00 0.00 40 1010.8
20200917180332 84 0 0.0 0.0 0.00 0.00 0.00 41 1011.0
20200917175434 84 0 0.0 0.0 0.00 0.00 0.00 41 1011.0
20200917174532 84 0 0.0 0.0 0.00 0.00 0.00 37 1011.1
20200917173634 99 0 0.0 0.0 0.00 0.00 0.00 43 1011.2
20200917172732 83 0 0.0 0.0 0.00 0.00 0.00 45 1011.2
20200917171832 82 0 0.0 0.0 0.00 0.00 0.00 45 1011.3
20200917170933 82 0 0.0 0.0 0.00 0.00 0.00 46 1011.3
20200917170033 82 0 0.0 0.0 0.00 0.00 0.00 45 1011.4
20200917165132 82 0 0.0 0.0 0.00 0.00 0.00 45 1011.4
20200917164237 82 0 0.0 0.0 0.00 0.00 0.00 49 1011.5
20200917163332 81 0 0.0 0.0 0.00 0.00 0.00 50 1011.7
20200917162432 66 0 0.0 0.0 0.00 0.00 0.00 49 1011.6
20200917161536 80 0 0.0 0.0 0.00 0.00 0.00 52 1011.8
20200917160639 79 0 0.0 0.0 0.00 0.00 0.00 54 1011.8
20200917155732 79 0 0.0 0.0 0.00 0.00 0.00 55 1011.8
20200917154832 78 0 0.0 0.0 0.00 0.00 0.00 56 1012.0
20200917153933 78 0 0.0 0.0 0.00 0.00 0.00 55 1012.1
20200917153041 78 0 0.0 0.0 0.00 0.00 0.00 55 1012.0
20200917152132 77 0 0.0 0.0 0.00 0.00 0.00 58 1012.1
20200917151235 66 0 0.0 0.0 0.00 0.00 0.00 59 1012.1
20200917150332 76 0 0.0 0.0 0.00 0.00 0.00 63 1012.0
20200917145433 76 0 0.0 0.0 0.00 0.00 0.00 63 1011.9
20200917144533 75 0 0.0 0.0 0.00 0.00 0.00 67 1011.9
20200917143632 74 0 0.0 0.0 0.00 0.00 0.00 70 1011.9
20200917142732 74 0 0.0 0.0 0.00 0.00 0.00 74 1011.8
20200917141832 73 0 0.0 0.0 0.00 0.00 0.00 77 1011.7
20200917140933 72 0 0.0 0.0 0.00 0.00 0.00 82 1011.9
20200917140034 71 0 0.0 0.0 0.00 0.00 0.00 87 1011.6
20200917135132 70 0 0.0 0.0 0.00 0.00 0.00 91 1011.7
20200917134232 70 0 0.0 0.0 0.00 0.00 0.00 91 1011.7
20200917133333 70 0 0.0 0.0 0.00 0.00 0.00 93 1011.8
20200917132434 78 0 0.0 0.0 0.00 0.00 0.00 93 1011.5
20200917131533 69 0 0.0 0.0 0.00 0.00 0.00 94 1011.4
20200917130637 68 0 0.0 0.0 0.00 0.00 0.00 94 1011.2
20200917125732 68 0 0.0 0.0 0.00 0.00 0.00 94 1011.3
20200917124832 68 0 0.0 0.0 0.00 0.00 0.00 94 1011.2
20200917123933 68 0 0.0 0.0 0.00 0.00 0.00 94 1011.2
20200917123032 68 0 0.0 0.0 0.00 0.00 0.00 94 1011.2
20200917122135 68 0 0.0 0.0 0.00 0.00 0.00 94 1011.0
20200917121232 68 0 0.0 0.0 0.00 0.00 0.00 94 1011.0
20200917120332 68 0 0.0 0.0 0.00 0.00 0.00 94 1010.9
20200917115432 67 0 0.0 0.0 0.00 0.00 0.00 94 1010.8
20200917114538 67 0 0.0 0.0 0.00 0.00 0.00 94 1010.7
20200917113632 52 0 0.0 0.0 0.00 0.00 0.00 94 1010.7
20200917112734 67 0 0.0 0.0 0.00 0.00 0.00 94 1010.8